Overview Statistics Trail Chart Weather Telemetry Raw packets
 

This is the latest recevied weather packets stored in our database for station/object N0MR. If no packets are shown the sender has not sent any weather packets the latest 10 day(s).

<< 14 15 16 17 18 19 20 >>
Time Temp. Humidity Pressure Rain* Wind** Luminosity Snow
1788371800 25° C 55% 1011.8 hPa 1.52 mm - - -
1788371201 23.33° C 58% 1012.1 hPa 0 mm - - -
1788370601 23.33° C 58% 1012.1 hPa 0 mm - - -
1788370002 23.33° C 60% 1012.1 hPa 0 mm - - -
1788369402 23.33° C 60% 1012.1 hPa 0 mm - - -
1788368802 23.33° C 61% 1012.2 hPa 0 mm - - -
1788368201 23.33° C 61% 1012.2 hPa 0 mm - - -
1788367602 23.33° C 61% 1012.3 hPa 0 mm - - -
1788367001 23.33° C 61% 1012.3 hPa 0 mm - - -
1788366402 23.33° C 61% 1012.1 hPa 0 mm - - -
1788365802 23.33° C 61% 1012.1 hPa 0 mm - - -
1788365202 22.78° C 63% 1012 hPa 0 mm - - -
1788364603 22.78° C 63% 1012 hPa 0 mm - - -
1788364001 22.22° C 64% 1012.1 hPa 0 mm - - -
1788363402 22.22° C 64% 1012.1 hPa 0 mm - - -
1788362802 21.11° C 69% 1012.2 hPa 0 mm - - -
1788359802 17.78° C 82% 1012.6 hPa 0 mm - - -
1788359202 17.78° C 82% 1012.6 hPa 0 mm - - -
1788357405 16.11° C 88% 1012.6 hPa 0 mm - - -
1788356803 16.11° C 88% 1012.6 hPa 0 mm - - -
1788356204 15.56° C 94% 1012.5 hPa 0 mm - - -
1788355604 15.56° C 94% 1012.5 hPa 0 mm - - -
1788355004 14.44° C 96% 1012.3 hPa 0 mm - - -
1788354403 14.44° C 96% 1012.3 hPa 0 mm - - -
1788353804 13.33° C 96% 1012.4 hPa 0 mm - - -

* Rain latest hour (hover to see other rain measurements)
** Current wind speed in m/s (hover to see current wind gust speed)